Location: Geçitköy
(36.7327°N, 29.8010°E)
Time: 19:33:51
(UTC+00:00)

Cosmos 1190 Rocket - Pass Details

Date: 12 January 2026
Orbit: 753 x 775 km, 74.1° (Epoch: 10 February)

Event Time Altitude Azimuth Distance (km) Brightness Sun altitude
Rises 15:22:37 0° 347° (NNW) 3,211 7.1 -4.0°
Reaches altitude 10° 15:25:03 10° 353° (N) 2,283 6.3 -4.4°
Maximum altitude 15:30:05 50° 69° (ENE) 953 4.2 -5.4°
Drops below altitude 10° 15:35:06 10° 145° (SE) 2,278 6.3 -6.3°
Sets 15:37:31 0° 150° (SSE) 3,202 7.1 -6.7°
